STARLINK-5823, 55786

Orbit data source: Space-Track

STARLINK-5823, 55786 is a payload satellite owned by SpaceX/Seattle (US) in LEO that was launched on Fri, 03 Mar 2023 UTC via an FALCON 9 launch vehicle from the Air Force Western Test Range (AFWTR). Payload-class satellites include a variety of spacecraft equipped with specific instruments for various scientific and technological missions. These include communications satellites like Starlink; space stations such as the ISS; scientific satellites like the Hubble; Earth observation satellites from companies like Planet Labs, Umbra, and HawkEye 360; GPS; miniature CubeSats for education and research; and military/defense satellites.

Loading next visibility...
Identifier
55786, 2023-028AX
Orbit
LEO
Country
Flag of USUS
Related business
Manufacturer
SpaceX/Seattle
Mission
Operational Commercial Communications
Bus & Motor
STARLINK, Unknown motor
Mass
305 kg wet, ~290 kg dry
Launch date (UTC)
2023-03-03 (3 years ago)
Launch vehicle
FALCON 9
Launch site
Air Force Western Test Range (AFWTR)
Object type
Payload
Rocket body
Debris
Shape & HBR
Box + 1 Pan, 10.1 m
Radar Cross Section
11.087 m², Large (>1 m²)

Expand to show TLE details & history
Last TLE update: 2 days ago

TLE from 2 days ago
0 STARLINK-5823
1 55786U 23028AX  26171.41668980 -.00007753  00000-0 -64243-3 0  9991
2 55786  70.0011 305.5214 0003191 266.3314  25.2346 14.98346341  5742
Epoch: 2026-06-20T10:00Z
TLE epoch observation values (Epoch: 2026-06-20T10:00:01.998Z)
Latitude
-61.0799°
Longitude
-154.05014°
Altitude
592.901 km
Speed
7.564 km/s
True Right ascension
17h 38m 21s
True Declination
-60° 55' 50"
Sunlit
Object was in full shadow at epoch
Visualization orbit readout
Latitude
Unknown
Longitude
Unknown
Altitude
Unknown
Speed
Unknown
Apparent Right ascension
Unknown
Apparent Declination
Unknown
Sunlit
N/A
Visualization observer readout
Local Sidereal Time
21:25:28
Azimuth
Unknown
Elevation
Unknown
Doppler factor
Unknown
Orbital elements
Apogee altitude
572.171 km
Perigee altitude
567.736 km
Semi-major axis
6,948.09 km
Eccentricity
0.00032
Inclination
70.0011°
RAAN
305.5214°
Arg. of periapsis
266.3314°
True anomaly
25.25019°
Mean anomaly
25.2346°
Eccentric anomaly
25.2424°
Mean motion
3.74753 °/min
Orbital period
96.06 mins
BSTAR
-0.00064243
Loading maneuver chart data...
Computing Atmospheric mass density...
Loading historical data...
Loading historical data...
Loading historical data...
Loading historical data...
Loading historical data...
Loading historical data...
Loading historical data...

Documentation

Showing up to 5 results
|